Ardabil, Iran

4:23 PM +0330 on October 16, 2019 (GMT +0330)
Ardabil

Weather History for OITL - August, 2019

Change the Weather History Date:

Monday, August 5, 2019

  Actual Average (WUND) Record (WUND)
Temperature  
Mean Temperature 66 °F -  
Max Temperature 80 °F - - (-1)
Min Temperature 53 °F - - (-1)
Cooling Degree Days 2    
Growing Degree Days 16 (Base 50)    
Moisture  
Dew Point 58 °F    
Average Humidity 68    
Maximum Humidity 94    
Minimum Humidity 45    
Precipitation  
Precipitation 0.00 in - - ()
Sea Level Pressure  
Sea Level Pressure 29.81 in    
Wind  
Wind Speed 11 mph ()    
Max Wind Speed 33 mph    
Max Gust Speed 43 mph    
Visibility 5.5 miles    
Events Fog    
Averages and records for this station are not official NWS values.
T = Trace of Precipitation, MM = Missing Value Source: Averaged Metar Reports

Daily Weather History Graph

Daily Weather History Graph

Search for Another Location

Airport or City:

Astronomy

Aug. 05, 2019 Rise Set
Actual Time 6:21 AM +0430 8:22 PM +0430
Civil Twilight 5:52 AM +0430 8:51 PM +0430
Nautical Twilight 5:16 AM +0430 9:26 PM +0430
Astronomical Twilight 4:38 AM +0430 10:05 PM +0430
Moon 11:07 AM +0430 (8/5) 11:26 PM +0430 (8/5)
Length of Visible Light 14h 59m
Length of Day
14h 01m
Waxing Crescent, 24% of the Moon is Illuminated
Aug 5
Waxing Crescent
Aug 7
First Quarter
Aug 15
Full
Aug 23
Last Quarter
Aug 30
New

Hourly Weather History & Observations

Time (+0430) Temp. Heat Index Dew Point Humidity Pressure Visibility Wind Dir Wind Speed Gust Speed Precip Events Conditions
12:20 AM 60.8 °F - 55.4 °F 82% 29.80 in 6.2 mi SSE 4.6 mph - N/A   Partly Cloudy
1:20 AM 59.0 °F - 53.6 °F 82% 29.80 in - SSE 4.6 mph - N/A   Clear
2:20 AM 59.0 °F - 53.6 °F 82% 29.80 in - WNW 4.6 mph - N/A   Clear
3:20 AM 57.2 °F - 55.4 °F 94% 29.80 in - Variable 2.3 mph - N/A   Clear
4:21 AM 57.2 °F - 55.4 °F 94% 29.80 in - SSW 4.6 mph - N/A   Clear
5:20 AM 53.6 °F - 48.2 °F 82% 29.80 in - Variable 4.6 mph - N/A   Clear
6:20 AM 53.6 °F - 50.0 °F 88% 29.80 in - ENE 4.6 mph - N/A   Clear
6:30 AM 53.6 °F - 50.0 °F 88% 29.80 in - ENE 4.6 mph - N/A   Clear
7:21 AM 59.0 °F - 51.8 °F 77% 29.80 in - Calm Calm - N/A   Clear
8:21 AM 64.4 °F - 55.4 °F 73% 29.83 in 6.2 mi Calm Calm - N/A   Partly Cloudy
8:30 AM 64.4 °F - 55.4 °F 73% 29.83 in 6.2 mi Calm Calm - N/A   Partly Cloudy
9:21 AM 69.8 °F - 57.2 °F 64% 29.80 in 6.2 mi SW 6.9 mph - N/A   Partly Cloudy
10:00 AM 73.4 °F - 59.0 °F 61% 29.80 in 6.2 mi Variable 4.6 mph - N/A   Partly Cloudy
10:21 AM 75.2 °F - 59.0 °F 57% 29.80 in 6.2 mi Calm Calm - N/A   Partly Cloudy
10:30 AM 75.2 °F - 59.0 °F 57% 29.80 in 6.2 mi Calm Calm - N/A   Partly Cloudy
11:00 AM 78.8 °F - 59.0 °F 51% 29.80 in 6.2 mi Variable 6.9 mph - N/A   Partly Cloudy
11:25 AM 78.8 °F - 57.2 °F 47% 29.80 in 6.2 mi NE 6.9 mph - N/A   Partly Cloudy
11:30 AM 78.8 °F - 57.2 °F 47% 29.80 in 6.2 mi NE 6.9 mph - N/A   Partly Cloudy
12:00 PM 80.6 °F 80.8 °F 57.2 °F 45% 29.77 in 6.2 mi ENE 6.9 mph - N/A   Partly Cloudy
12:20 PM 80.6 °F 81.1 °F 59.0 °F 48% 29.77 in 6.2 mi ENE 16.1 mph - N/A   Partly Cloudy
12:30 PM 80.6 °F 81.1 °F 59.0 °F 48% 29.77 in 6.2 mi ENE 16.1 mph - N/A   Partly Cloudy
1:00 PM 80.6 °F 81.1 °F 59.0 °F 48% 29.77 in 6.2 mi ENE 16.1 mph - N/A   Partly Cloudy
1:20 PM 80.6 °F 81.1 °F 59.0 °F 48% 29.77 in 6.2 mi ENE 26.5 mph - N/A   Partly Cloudy
1:30 PM 80.6 °F 81.1 °F 59.0 °F 48% 29.77 in 6.2 mi ENE 26.5 mph - N/A   Partly Cloudy
2:00 PM 78.8 °F - 60.8 °F 54% 29.77 in 6.2 mi ENE 28.8 mph - N/A   Partly Cloudy
2:22 PM 78.8 °F - 60.8 °F 54% 29.80 in 6.2 mi ENE 33.4 mph - N/A   Partly Cloudy
2:30 PM 78.8 °F - 60.8 °F 54% 29.80 in 6.2 mi ENE 33.4 mph - N/A   Partly Cloudy
3:00 PM 78.8 °F - 59.0 °F 51% 29.80 in 6.2 mi ENE 28.8 mph 42.6 mph N/A   Partly Cloudy
3:24 PM 77.0 °F - 57.2 °F 50% 29.80 in 6.2 mi ENE 28.8 mph 42.6 mph N/A   Partly Cloudy
3:30 PM 77.0 °F - 57.2 °F 50% 29.80 in 6.2 mi ENE 28.8 mph 42.6 mph N/A   Partly Cloudy
4:00 PM 77.0 °F - 59.0 °F 54% 29.80 in 6.2 mi ENE 31.1 mph - N/A   Partly Cloudy
4:22 PM 75.2 °F - 60.8 °F 61% 29.80 in 6.2 mi ENE 31.1 mph - N/A   Partly Cloudy
4:30 PM 75.2 °F - 60.8 °F 61% 29.80 in 6.2 mi ENE 31.1 mph - N/A   Partly Cloudy
5:00 PM 71.6 °F - 60.8 °F 69% 29.80 in 6.2 mi ENE 31.1 mph - N/A   Partly Cloudy
5:22 PM 71.6 °F - 60.8 °F 69% 29.80 in 6.2 mi ENE 26.5 mph - N/A   Mostly Cloudy
5:30 PM 71.6 °F - 60.8 °F 69% 29.80 in 6.2 mi ENE 26.5 mph - N/A   Mostly Cloudy
6:00 PM 66.2 °F - 62.6 °F 88% 29.83 in 1.9 mi ENE 31.1 mph - N/A   Light Drizzle
6:30 PM 66.2 °F - 62.6 °F 88% 29.83 in 3.1 mi ENE 24.2 mph - N/A   Light Drizzle
7:23 PM 64.4 °F - 62.6 °F 94% 29.86 in 3.1 mi ENE 26.5 mph - N/A   Light Drizzle
8:22 PM 60.8 °F - 59.0 °F 94% 29.89 in 1.9 mi ENE 26.5 mph - N/A   Light Drizzle
9:20 PM 60.8 °F - 59.0 °F 94% 29.92 in 1.9 mi ENE 28.8 mph - N/A   Light Drizzle
10:22 PM 59.0 °F - 57.2 °F 94% 29.95 in 1.9 mi East 21.9 mph - N/A   Light Drizzle
11:25 PM 59.0 °F - 55.4 °F 88% 29.98 in 3.7 mi East 18.4 mph - N/A Fog Fog